Overview Statistics Trail Chart Weather Telemetry Raw packets
 

This is the latest recevied weather packets stored in our database for station/object WX5KDM. If no packets are shown the sender has not sent any weather packets the latest 10 day(s).

<< 69 70 71 72 73 74 75 >>
Time Temp. Humidity Pressure Rain* Wind** Luminosity Snow
1788128295 33.89° C 53% 1017.1 hPa 0 mm - - -
1788127992 34.44° C 52% 1017.1 hPa 0 mm - - -
1788127687 34.44° C 53% 1017.2 hPa 0 mm - - -
1788127387 33.89° C 54% 1017.1 hPa 0 mm - - -
1788127085 34.44° C 52% 1017.2 hPa 0 mm - - -
1788126780 34.44° C 53% 1017.3 hPa 0 mm - - -
1788126474 33.89° C 55% 1017.3 hPa 0 mm - - -
1788126169 33.33° C 56% 1017.1 hPa 0 mm - - -
1788125869 33.33° C 56% 1017.4 hPa 0 mm - - -
1788125564 33.33° C 55% 1017.2 hPa 0 mm - - -
1788125260 33.89° C 55% 1017.3 hPa 0 mm - - -
1788124956 32.78° C 55% 1017.4 hPa 0 mm - - -
1788124655 33.33° C 55% 1017.3 hPa 0 mm - - -
1788124354 32.78° C 56% 1017.2 hPa 0 mm - - -
1788124050 32.78° C 56% 1017.5 hPa 0 mm - - -
1788123749 33.33° C 55% 1017.5 hPa 0 mm - - -
1788123446 35° C 54% 1017.6 hPa 0 mm - - -
1788123142 34.44° C 55% 1017.4 hPa 0 mm - - -
1788122837 34.44° C 55% 1017.7 hPa 0 mm - - -
1788122536 34.44° C 54% 1017.5 hPa 0 mm - - -
1788122232 35° C 55% 1017.7 hPa 0 mm - - -
1788121927 35° C 55% 1017.8 hPa 0 mm - - -
1788121626 36.11° C 53% 1017.9 hPa 0 mm - - -
1788121322 34.44° C 53% 1017.9 hPa 0 mm - - -
1788121015 33.89° C 54% 1017.9 hPa 0 mm - - -

* Rain latest hour (hover to see other rain measurements)
** Current wind speed in m/s (hover to see current wind gust speed)